Weather History for KPEX - May, 2013

Change the Weather History Date:

Saturday, May 11, 2013

  Actual Average (KLJF) Record (KLJF)
Temperature  
Mean Temperature 44 °F -  
Max Temperature 50 °F 70 °F 87 °F (1958)
Min Temperature 36 °F 45 °F 30 °F (1981)
Degree Days  
Heating Degree Days 22    
Moisture  
Dew Point 23 °F    
Average Humidity 47    
Maximum Humidity 71    
Minimum Humidity 27    
Precipitation  
Precipitation 0.00 in - - ()
Sea Level Pressure  
Sea Level Pressure 30.14 in    
Wind  
Wind Speed 15 mph (NW)    
Max Wind Speed 25 mph    
Max Gust Speed 37 mph    
Visibility 10 miles    
Events      
Averages and records for this station are not official NWS values.
T = Trace of Precipitation, MM = Missing Value Source: NWS Daily Summary

Daily Weather History Graph

Daily Weather History Graph

Search for Another Location

Airport or City:

Trip Planner

Search our weather history database for the weather conditions in past years. The results will help you decide how hot, cold, wet, or windy it might be!

Date:

Astronomy

May. 11, 2013 Rise Set
Actual Time 5:53 AM CDT 8:38 PM CDT
Civil Twilight 5:19 AM CDT 9:12 PM CDT
Nautical Twilight 4:36 AM CDT 9:55 PM CDT
Astronomical Twilight 3:46 AM CDT 10:46 PM CDT
Moon 7:00 AM CDT (5/11) 10:20 PM CDT (5/11)
Length of Visible Light 15h 53m
Length of Day
14h 44m
Waxing Crescent, 3% of the Moon is Illuminated
May 11
Waxing Crescent
May 17
First Quarter
May 24
Full
May 31
Last Quarter
Jun 8
New

Hourly Weather History & Observations

Time (CDT) Temp. Windchill Dew Point Humidity Pressure Visibility Wind Dir Wind Speed Gust Speed Precip Events Conditions
12:13 AM 50.2 °F - 36.9 °F 60% 29.99 in 10.0 mi NNW 19.6 mph 28.8 mph N/A   Clear
12:33 AM 47.7 °F - 37.4 °F 68% 30.00 in 10.0 mi NW 11.5 mph - N/A   Clear
12:53 AM 46.9 °F - 36.5 °F 67% 30.02 in 10.0 mi NNW 12.7 mph 18.4 mph N/A   Clear
1:13 AM 46.0 °F 40.2 °F 36.3 °F 69% 30.02 in 10.0 mi NNW 12.7 mph - N/A   Clear
1:33 AM 45.5 °F 39.9 °F 35.8 °F 69% 30.03 in 10.0 mi NNW 11.5 mph - N/A   Clear
1:53 AM 44.6 °F 38.4 °F 34.9 °F 69% 30.03 in 10.0 mi NNW 12.7 mph 16.1 mph N/A   Clear
2:13 AM 44.1 °F 37.7 °F 32.5 °F 64% 30.04 in 10.0 mi NNW 12.7 mph 18.4 mph N/A   Clear
2:33 AM 43.0 °F 36.0 °F 32.0 °F 65% 30.06 in 10.0 mi NNW 13.8 mph 19.6 mph N/A   Clear
2:53 AM 42.3 °F 35.9 °F 30.7 °F 64% 30.06 in 10.0 mi NNW 11.5 mph 17.3 mph N/A   Clear
3:13 AM 41.4 °F 34.7 °F 30.6 °F 65% 30.07 in 10.0 mi NNW 11.5 mph - N/A   Clear
3:33 AM 40.3 °F 36.3 °F 30.9 °F 69% 30.08 in 10.0 mi NW 5.8 mph - N/A   Clear
3:53 AM 39.7 °F 33.7 °F 30.4 °F 69% 30.08 in 10.0 mi NNW 9.2 mph - N/A   Clear
4:13 AM 39.4 °F 33.8 °F 30.0 °F 69% 30.09 in 10.0 mi NW 8.1 mph - N/A   Clear
4:33 AM 39.0 °F 31.4 °F 29.8 °F 70% 30.09 in 10.0 mi NW 12.7 mph - N/A   Clear
4:53 AM 38.8 °F 32.1 °F 29.8 °F 70% 30.09 in 10.0 mi NW 10.4 mph - N/A   Clear
5:13 AM 38.3 °F 30.5 °F 29.5 °F 71% 30.10 in 10.0 mi NW 12.7 mph 17.3 mph N/A   Clear
5:33 AM 38.3 °F 31.9 °F 28.6 °F 68% 30.10 in 10.0 mi NW 9.2 mph 17.3 mph N/A   Clear
5:53 AM 37.6 °F 31.0 °F 27.9 °F 68% 30.11 in 10.0 mi NW 9.2 mph - N/A   Clear
6:13 AM 37.9 °F 30.5 °F 26.6 °F 64% 30.11 in 10.0 mi NNW 11.5 mph - N/A   Clear
6:32 AM 37.8 °F 31.3 °F 27.0 °F 65% 30.13 in 10.0 mi NW 9.2 mph - N/A   Scattered Clouds
6:53 AM 37.9 °F 30.5 °F 27.5 °F 66% 30.13 in 10.0 mi WNW 11.5 mph - N/A   Clear
7:13 AM 38.3 °F 30.1 °F 28.6 °F 68% 30.14 in 10.0 mi WNW 13.8 mph 18.4 mph N/A   Scattered Clouds
7:33 AM 39.6 °F 30.0 °F 30.0 °F 69% 30.14 in 10.0 mi NW 19.6 mph 25.3 mph N/A   Scattered Clouds
7:52 AM 40.6 °F 31.4 °F 30.2 °F 66% 30.14 in 10.0 mi NNW 19.6 mph 25.3 mph N/A   Clear
8:13 AM 41.7 °F 32.6 °F 30.0 °F 63% 30.14 in 10.0 mi NW 20.7 mph 27.6 mph N/A   Mostly Cloudy
8:33 AM 41.0 °F 30.9 °F 26.8 °F 57% 30.16 in 10.0 mi NW 24.2 mph 35.7 mph N/A   Scattered Clouds
8:52 AM 41.5 °F 32.9 °F 26.4 °F 55% 30.16 in 10.0 mi NW 18.4 mph 31.1 mph N/A   Scattered Clouds
9:13 AM 42.3 °F 33.3 °F 26.6 °F 54% 30.16 in 10.0 mi NW 20.7 mph 26.5 mph N/A   Scattered Clouds
9:33 AM 41.4 °F 32.1 °F 25.3 °F 53% 30.16 in 10.0 mi NW 20.7 mph 29.9 mph N/A   Mostly Cloudy
9:52 AM 43.3 °F 35.0 °F 20.8 °F 41% 30.16 in 10.0 mi NNW 19.6 mph 33.4 mph N/A   Scattered Clouds
10:13 AM 42.8 °F 33.3 °F 19.9 °F 40% 30.17 in 10.0 mi NNW 24.2 mph 34.5 mph N/A   Scattered Clouds
10:33 AM 43.9 °F 34.7 °F 19.9 °F 38% 30.17 in 10.0 mi NNW 24.2 mph 32.2 mph N/A   Scattered Clouds
10:53 AM 44.6 °F 35.9 °F 18.0 °F 34% 30.17 in 10.0 mi NNW 23.0 mph 35.7 mph N/A   Scattered Clouds
11:13 AM 45.9 °F 37.4 °F 17.2 °F 32% 30.18 in 10.0 mi NW 24.2 mph 34.5 mph N/A   Scattered Clouds
11:33 AM 45.9 °F 37.8 °F 17.1 °F 32% 30.18 in 10.0 mi NW 21.9 mph 31.1 mph N/A   Clear
11:53 AM 46.2 °F 38.1 °F 18.5 °F 33% 30.17 in 10.0 mi NNW 23.0 mph 31.1 mph N/A   Scattered Clouds
12:12 PM 45.5 °F 36.7 °F 17.4 °F 33% 30.18 in 10.0 mi NW 25.3 mph 33.4 mph N/A   Clear
12:33 PM 46.6 °F - 18.1 °F 32% 30.18 in 10.0 mi NW 21.9 mph 32.2 mph N/A   Scattered Clouds
12:53 PM 46.8 °F - 18.1 °F 32% 30.18 in 10.0 mi NW 21.9 mph 34.5 mph N/A   Scattered Clouds
1:13 PM 47.1 °F - 18.3 °F 32% 30.18 in 10.0 mi NW 24.2 mph 33.4 mph N/A   Scattered Clouds
1:33 PM 47.8 °F - 19.2 °F 32% 30.18 in 10.0 mi WNW 20.7 mph 32.2 mph N/A   Mostly Cloudy
1:53 PM 47.3 °F - 18.7 °F 32% 30.18 in 10.0 mi NW 24.2 mph 36.8 mph N/A   Mostly Cloudy
2:12 PM 47.5 °F - 19.8 °F 33% 30.18 in 10.0 mi NW 21.9 mph 33.4 mph N/A   Scattered Clouds
2:33 PM 48.4 °F - 18.9 °F 31% 30.18 in 10.0 mi NW 20.7 mph 35.7 mph N/A   Mostly Cloudy
2:53 PM 48.7 °F - 18.7 °F 30% 30.18 in 10.0 mi NW 23.0 mph 31.1 mph N/A   Scattered Clouds
3:13 PM 49.8 °F - 19.6 °F 30% 30.17 in 10.0 mi NW 23.0 mph 29.9 mph N/A   Mostly Cloudy
3:33 PM 50.4 °F - 18.5 °F 28% 30.17 in 10.0 mi NW 23.0 mph 33.4 mph N/A   Scattered Clouds
3:53 PM 50.2 °F - 18.5 °F 29% 30.17 in 10.0 mi NW 21.9 mph 31.1 mph N/A   Scattered Clouds
4:13 PM 50.4 °F - 18.5 °F 28% 30.17 in 10.0 mi NNW 24.2 mph 31.1 mph N/A   Mostly Cloudy
4:33 PM 49.3 °F - 18.0 °F 29% 30.17 in 10.0 mi NW 21.9 mph 33.4 mph N/A   Scattered Clouds
4:53 PM 50.2 °F - 17.2 °F 27% 30.16 in 10.0 mi North 15.0 mph 26.5 mph N/A   Scattered Clouds
5:13 PM 50.7 °F - 18.9 °F 28% 30.17 in 10.0 mi NW 21.9 mph 28.8 mph N/A   Scattered Clouds
5:33 PM 49.5 °F - 17.6 °F 28% 30.17 in 10.0 mi NW 17.3 mph 28.8 mph N/A   Scattered Clouds
5:53 PM 49.8 °F - 17.1 °F 27% 30.17 in 10.0 mi NW 18.4 mph 27.6 mph N/A   Clear
6:13 PM 48.2 °F - 16.7 °F 29% 30.17 in 10.0 mi NNW 19.6 mph 29.9 mph N/A   Clear
6:33 PM 48.9 °F - 17.1 °F 28% 30.17 in 10.0 mi NW 19.6 mph 28.8 mph N/A   Clear
6:53 PM 48.7 °F - 16.2 °F 27% 30.17 in 10.0 mi NNW 17.3 mph 27.6 mph N/A   Clear
7:13 PM 48.4 °F - 15.6 °F 27% 30.18 in 10.0 mi NW 17.3 mph 28.8 mph N/A   Clear
7:32 PM 47.8 °F - 16.0 °F 28% 30.17 in 10.0 mi NW 17.3 mph 27.6 mph N/A   Clear
7:53 PM 47.3 °F - 16.2 °F 29% 30.18 in 10.0 mi NNW 15.0 mph 20.7 mph N/A   Clear
8:13 PM 46.4 °F 41.1 °F 15.6 °F 29% 30.18 in 10.0 mi NNW 11.5 mph 19.6 mph N/A   Clear
8:33 PM 45.5 °F 40.8 °F 16.7 °F 32% 30.18 in 10.0 mi NNW 9.2 mph 18.4 mph N/A   Clear
8:53 PM 44.6 °F 39.7 °F 16.5 °F 32% 30.18 in 10.0 mi NNW 9.2 mph 18.4 mph N/A   Clear
9:13 PM 43.2 °F 37.9 °F 17.1 °F 35% 30.18 in 10.0 mi NW 9.2 mph - N/A   Clear
9:33 PM 41.9 °F 38.2 °F 19.0 °F 40% 30.19 in 10.0 mi WNW 5.8 mph - N/A   Clear
9:52 PM 40.8 °F 36.9 °F 19.8 °F 43% 30.20 in 10.0 mi WNW 5.8 mph - N/A   Clear
10:13 PM 39.6 °F 36.3 °F 20.3 °F 46% 30.20 in 10.0 mi NW 4.6 mph - N/A   Clear
10:33 PM 39.2 °F 35.0 °F 20.5 °F 47% 30.20 in 10.0 mi WNW 5.8 mph - N/A   Clear
10:52 PM 38.7 °F 34.3 °F 20.7 °F 48% 30.20 in 10.0 mi WNW 5.8 mph - N/A   Clear
11:13 PM 38.5 °F 35.0 °F 20.3 °F 48% 30.20 in 10.0 mi WNW 4.6 mph - N/A   Clear
11:33 PM 37.4 °F 33.8 °F 21.0 °F 52% 30.21 in 10.0 mi WNW 4.6 mph - N/A   Clear
11:53 PM 36.5 °F 33.9 °F 21.0 °F 54% 30.21 in 10.0 mi NW 3.5 mph - N/A   Clear